Brodnax, VA

12:19 AM EST on December 08, 2016 (GMT -0500)
Mecklenburg-Brunswick Regional

Weather History for KAVC - April, 2014

Change the Weather History Date:

Wednesday, April 9, 2014

  Actual Average (KEMV) Record (KEMV)
Temperature  
Mean Temperature 59 °F -  
Max Temperature 68 °F 71 °F 85 °F (1991)
Min Temperature 50 °F 43 °F 25 °F (1990)
Degree Days  
Heating Degree Days 6    
Growing Degree Days 9 (Base 50)    
Moisture  
Dew Point 38 °F    
Average Humidity 48    
Maximum Humidity 82    
Minimum Humidity 28    
Precipitation  
Precipitation 0.00 in - - ()
Sea Level Pressure  
Sea Level Pressure 29.90 in    
Wind  
Wind Speed 4 mph (NW)    
Max Wind Speed 12 mph    
Max Gust Speed 18 mph    
Visibility 10 miles    
Events Rain    
Averages and records for this station are not official NWS values.
T = Trace of Precipitation, MM = Missing Value Source: NWS Daily Summary

Daily Weather History Graph

Daily Weather History Graph

Search for Another Location

Airport or City:

Trip Planner

Search our weather history database for the weather conditions in past years. The results will help you decide how hot, cold, wet, or windy it might be!

Date:

Astronomy

Apr. 09, 2014 Rise Set
Actual Time 6:46 AM EDT 7:41 PM EDT
Civil Twilight 6:20 AM EDT 8:07 PM EDT
Nautical Twilight 5:49 AM EDT 8:39 PM EDT
Astronomical Twilight 5:16 AM EDT 9:11 PM EDT
Moon 2:35 PM EDT (4/9) 3:26 AM EDT (4/9)
Length of Visible Light 13h 47m
Length of Day
12h 54m
Waxing Gibbous, 71% of the Moon is Illuminated
Apr 9
Waxing Gibbous
Apr 15
Full
Apr 22
Last Quarter
Apr 29
New
May 6
First Quarter

Hourly Weather History & Observations

Time (EDT) Temp. Dew Point Humidity Pressure Visibility Wind Dir Wind Speed Gust Speed Precip Events Conditions
12:15 AM 55.4 °F 39.2 °F 54% 29.74 in 10.0 mi North 4.6 mph - N/A   Clear
12:35 AM 53.6 °F 39.2 °F 58% 29.74 in 10.0 mi North 3.5 mph - N/A   Mostly Cloudy
12:55 AM 53.6 °F 41.0 °F 62% 29.73 in 10.0 mi North 4.6 mph - N/A   Overcast
1:15 AM 53.6 °F 41.0 °F 62% 29.74 in 10.0 mi North 4.6 mph - N/A   Overcast
1:35 AM 53.6 °F 42.8 °F 67% 29.74 in 10.0 mi North 4.6 mph - N/A   Overcast
1:55 AM 53.6 °F 42.8 °F 67% 29.75 in 10.0 mi North 3.5 mph - N/A   Overcast
2:15 AM 53.6 °F 41.0 °F 62% 29.75 in 10.0 mi Calm Calm - N/A   Overcast
2:35 AM 53.6 °F 42.8 °F 67% 29.74 in 10.0 mi Calm Calm - N/A   Overcast
2:55 AM 51.8 °F 44.6 °F 76% 29.73 in 10.0 mi Calm Calm - N/A   Overcast
3:15 AM 50.0 °F 44.6 °F 82% 29.73 in 10.0 mi Calm Calm - N/A   Overcast
3:35 AM 51.8 °F 44.6 °F 76% 29.73 in 10.0 mi Calm Calm - N/A   Overcast
3:55 AM 53.6 °F 42.8 °F 67% 29.74 in 10.0 mi West 3.5 mph - N/A Rain Light Rain
4:15 AM 53.6 °F 42.8 °F 67% 29.74 in 10.0 mi Calm Calm - N/A   Overcast
4:35 AM 53.6 °F 42.8 °F 67% 29.75 in 10.0 mi Calm Calm - N/A   Overcast
4:55 AM 53.6 °F 42.8 °F 67% 29.75 in 10.0 mi West 3.5 mph - N/A   Overcast
5:15 AM 53.6 °F 42.8 °F 67% 29.76 in 10.0 mi Calm Calm - N/A   Overcast
5:55 AM 51.8 °F 42.8 °F 71% 29.78 in 10.0 mi Calm Calm - N/A   Overcast
6:15 AM 51.8 °F 42.8 °F 71% 29.79 in 10.0 mi Calm Calm - N/A   Overcast
6:35 AM 53.6 °F 42.8 °F 67% 29.81 in 10.0 mi NW 4.6 mph - N/A   Overcast
6:55 AM 53.6 °F 42.8 °F 67% 29.81 in 10.0 mi North 6.9 mph - N/A   Overcast
7:15 AM 53.6 °F 41.0 °F 62% 29.81 in 10.0 mi Calm Calm - N/A   Overcast
7:35 AM 53.6 °F 42.8 °F 67% 29.83 in 10.0 mi Calm Calm - N/A   Overcast
7:55 AM 53.6 °F 44.6 °F 72% 29.84 in 10.0 mi North 3.5 mph - N/A   Overcast
8:15 AM 53.6 °F 44.6 °F 72% 29.85 in 10.0 mi Calm Calm - N/A   Overcast
8:35 AM 53.6 °F 44.6 °F 72% 29.86 in 10.0 mi Calm Calm - N/A   Mostly Cloudy
8:55 AM 55.4 °F 44.6 °F 67% 29.87 in 10.0 mi Calm Calm - N/A   Mostly Cloudy
9:15 AM 59.0 °F 42.8 °F 55% 29.88 in 10.0 mi North 10.4 mph - N/A   Scattered Clouds
9:35 AM 59.0 °F 39.2 °F 48% 29.88 in 10.0 mi NNW 8.1 mph 18.4 mph N/A   Scattered Clouds
9:55 AM 59.0 °F 39.2 °F 48% 29.89 in 10.0 mi North 9.2 mph - N/A   Scattered Clouds
10:15 AM 60.8 °F 39.2 °F 45% 29.90 in 10.0 mi North 5.8 mph - N/A   Clear
10:35 AM 60.8 °F 37.4 °F 42% 29.90 in 10.0 mi North 8.1 mph - N/A   Clear
10:55 AM 62.6 °F 37.4 °F 39% 29.91 in 10.0 mi North 6.9 mph - N/A   Clear
11:15 AM 62.6 °F 35.6 °F 37% 29.92 in 10.0 mi North 8.1 mph - N/A   Clear
11:55 AM 62.6 °F 35.6 °F 37% 29.92 in 10.0 mi NNW 6.9 mph - N/A   Clear
12:15 PM 64.4 °F 35.6 °F 34% 29.92 in 10.0 mi North 11.5 mph 16.1 mph N/A   Clear
12:35 PM 66.2 °F 35.6 °F 32% 29.92 in 10.0 mi NNW 9.2 mph - N/A   Clear
12:55 PM 64.4 °F 35.6 °F 34% 29.91 in 10.0 mi NW 3.5 mph - N/A   Scattered Clouds
1:15 PM 66.2 °F 35.6 °F 32% 29.91 in 10.0 mi NNW 6.9 mph - N/A   Scattered Clouds
1:35 PM 66.2 °F 35.6 °F 32% 29.91 in 10.0 mi WNW 6.9 mph - N/A   Scattered Clouds
1:55 PM 66.2 °F 35.6 °F 32% 29.91 in 10.0 mi West 3.5 mph - N/A   Scattered Clouds
2:15 PM 66.2 °F 33.8 °F 30% 29.91 in 10.0 mi NNW 6.9 mph - N/A   Scattered Clouds
2:35 PM 68.0 °F 35.6 °F 30% 29.91 in 10.0 mi NNW 6.9 mph - N/A   Mostly Cloudy
2:55 PM 66.2 °F 33.8 °F 30% 29.91 in 10.0 mi NNW 8.1 mph - N/A   Mostly Cloudy
3:15 PM 66.2 °F 33.8 °F 30% 29.91 in 10.0 mi NW 4.6 mph - N/A   Mostly Cloudy
3:35 PM 66.2 °F 33.8 °F 30% 29.91 in 10.0 mi NNW 6.9 mph - N/A   Scattered Clouds
3:55 PM 66.2 °F 35.6 °F 32% 29.91 in 10.0 mi WNW 5.8 mph - N/A   Scattered Clouds
4:15 PM 66.2 °F 33.8 °F 30% 29.92 in 10.0 mi West 6.9 mph - N/A   Scattered Clouds
4:35 PM 66.2 °F 35.6 °F 32% 29.92 in 10.0 mi WNW 5.8 mph - N/A   Mostly Cloudy
4:55 PM 68.0 °F 33.8 °F 28% 29.92 in 10.0 mi NW 5.8 mph - N/A   Mostly Cloudy
5:15 PM 66.2 °F 33.8 °F 30% 29.93 in 10.0 mi West 10.4 mph 18.4 mph N/A   Scattered Clouds
5:35 PM 68.0 °F 35.6 °F 30% 29.94 in 10.0 mi WNW 9.2 mph - N/A   Scattered Clouds
5:55 PM 66.2 °F 35.6 °F 32% 29.95 in 10.0 mi NW 5.8 mph - N/A   Scattered Clouds
6:15 PM 68.0 °F 35.6 °F 30% 29.95 in 10.0 mi NW 6.9 mph - N/A   Scattered Clouds
6:35 PM 66.2 °F 35.6 °F 32% 29.96 in 10.0 mi WNW 5.8 mph - N/A   Scattered Clouds
6:55 PM 66.2 °F 35.6 °F 32% 29.97 in 10.0 mi WNW 3.5 mph - N/A   Scattered Clouds
7:15 PM 64.4 °F 35.6 °F 34% 29.98 in 10.0 mi West 4.6 mph - N/A   Scattered Clouds
7:35 PM 64.4 °F 33.8 °F 32% 29.99 in 10.0 mi West 5.8 mph - N/A   Clear
7:55 PM 62.6 °F 33.8 °F 34% 30.01 in 10.0 mi West 3.5 mph - N/A   Clear
8:15 PM 62.6 °F 33.8 °F 34% 30.02 in 10.0 mi Calm Calm - N/A   Clear
8:35 PM 60.8 °F 33.8 °F 36% 30.03 in 10.0 mi Calm Calm - N/A   Clear
8:55 PM 60.8 °F 35.6 °F 39% 30.05 in 10.0 mi Calm Calm - N/A   Clear
9:15 PM 60.8 °F 35.6 °F 39% 30.06 in 10.0 mi Calm Calm - N/A   Clear
9:35 PM 59.0 °F 35.6 °F 42% 30.08 in 10.0 mi Calm Calm - N/A   Clear
9:55 PM 59.0 °F 35.6 °F 42% 30.09 in 10.0 mi NW 3.5 mph - N/A   Clear
10:15 PM 57.2 °F 33.8 °F 41% 30.10 in 10.0 mi NW 3.5 mph - N/A   Clear
10:35 PM 57.2 °F 33.8 °F 41% 30.10 in 10.0 mi NW 3.5 mph - N/A   Clear
10:55 PM 57.2 °F 33.8 °F 41% 30.11 in 10.0 mi NW 4.6 mph - N/A   Clear
11:15 PM 55.4 °F 33.8 °F 44% 30.12 in 10.0 mi Calm Calm - N/A   Clear
11:35 PM 55.4 °F 33.8 °F 44% 30.13 in 10.0 mi NNW 4.6 mph - N/A   Clear
11:55 PM 53.6 °F 35.6 °F 51% 30.13 in 10.0 mi Calm Calm - N/A   Clear